User: anonymous   Login
Location: *
(35.2348°S, 91.3916°E)
Time: 20:45:55
(UTC+00:00)
Language:

Cosmos 1455 Rocket - Orbit

View from above orbital plane
View from above orbital plane
View from above satellite
View from above satellite

Ground track
Ground track

The orbit data is extracted from the following two-line orbital elements,

1 14033U 83037B   19348.08856122  .00000070  00000-0  55293-5 0  9995
2 14033  82.5078 212.7540 0017727 358.2700   1.8450 14.83796243614537
Epoch (UTC): 14 December 2019 02:07:31
Eccentricity: 0.0017727
inclination: 82.5078°
perigee height: 605 km
apogee height: 630 km
right ascension of ascending node: 212.7540°
argument of perigee: 358.2700°
revolutions per day: 14.83796243
mean anomaly at epoch: 1.8450°
orbit number at epoch: 61453

The dashed part of the orbit path shows where the satellite is in the earth's shadow,  

DLR